Location: *
(2.5500°S, 65.9667°W)
Time: 13:09:02
(UTC+00:00)

XW-2D - Pass Details

Date: 01 July 2022
Orbit: 495 x 515 km, 97.5° (Epoch: 15 August)

Event Time Altitude Azimuth Distance (km) Brightness Sun altitude
Rises 09:26:34 0° 34° (NE) 2,613 ? -15.1°
Reaches altitude 10° 09:29:00 10° 49° (NE) 1,728 ? -14.5°
Maximum altitude 09:31:56 22° 102° (ESE) 1,146 ? -13.8°
Drops below altitude 10° 09:34:52 10° 154° (SSE) 1,727 ? -13.2°
Sets 09:37:16 0° 169° (S) 2,611 ? -12.6°
